www.pogodaiklimat.ru

Погода и климат >> Архив погоды >> Иран >> Остров Сирри


ПОГОДА на Острове Сирри

  • Прогноз погоды на Острове Сирри
  • Монитор погоды на Острове Сирри

АРХИВ ПОГОДЫ на Острове Сирри

Время (UTC), дата Ветер
(напр.,м/с)
 
Видим.   Явления Облачность Т
(С)
Тd
(С)
f
(%)
Тe
(С)
Тes
(С)
Комфортность P
(гПа)
Po
(гПа)
Тmin
(С)
Tmax
(С)
R
(мм)
R24
(мм)
S
(см)
03 13.06 СВ 3 5000 м мгла ясно +33.0 +27.6 73 +52 +54 опасность
перегрева
998.0 997.6 +31.0
06 13.06 СВ 3 5000 м мгла ясно +34.4 +30.1 78 +61 +75 опасность
перегрева
999.7 999.3
09 13.06 В 2 5000 м мгла ясно +35.4 +28.7 68 +58 +79 опасность
перегрева
999.1 998.7
12 13.06 СВ 2 5000 м мгла ясно +35.2 +30.0 75 +62 +72 опасность
перегрева
997.1 996.7
15 13.06 СЗ 3 5000 м мгла ясно +35.0 +28.3 68 +56 +56 опасность
перегрева
996.6 996.2 +37.0
03 14.06 ЮЗ 2 3000 м дымка ясно +32.0 +29.3 86 +56 +59 опасность
перегрева
997.9 997.5 +31.6
06 14.06 ЮВ 3 3000 м мгла 1/1 600 м
[St]
+34.0 +30.1 80 +61 +73 опасность
перегрева
999.2 998.8
09 14.06 ЮВ 2 3000 м мгла ясно +35.6 +29.2 70 +60 +82 опасность
перегрева
998.8 998.4
12 14.06 Ю 3 3000 м мгла ясно +35.4 +30.1 74 +62 +70 опасность
перегрева
997.3 996.9
15 14.06 ЮЗ 2 3000 м мгла ясно +34.0 +29.2 76 +58 +58 опасность
перегрева
996.9 996.5 +35.8
03 15.06 ЮЗ 2 3000 м дымка ясно +31.0 +28.6 87 +53 +55 опасность
перегрева
998.3 997.8 +29.4
06 15.06 ЮВ 5 5000 м мгла ясно +33.0 +30.1 85 +60 +69 опасность
перегрева
999.7 999.3
09 15.06 ЮВ 3 5000 м мгла ясно +34.4 +27.3 67 +53 +72 опасность
перегрева
999.2 998.8
12 15.06 В 3 4000 м мгла ясно +35.4 +30.0 74 +62 +70 опасность
перегрева
998.1 997.6
15 15.06 штиль 0 3500 м мгла ясно +34.2 +27.1 67 +53 +53 опасность
перегрева
997.9 997.4 +35.6
03 16.06 С 3 3000 м дымка ясно +31.4 +29.0 87 +54 +56 опасность
перегрева
999.1 998.6 +29.8
06 16.06 В 3 3500 м мгла 4/0
[Ci fib]
+34.0 +30.0 80 +61 +73 опасность
перегрева
999.8 999.3
09 16.06 штиль 0 3500 м мгла 10/0
[Cs]
+35.0 +26.9 63 +53 +76 опасность
перегрева
999.8 999.3
12 16.06 СЗ 5 4000 м мгла 10/0
[Cs]
+37.0 +30.1 68 +64 +68 опасность
перегрева
998.0 997.5
15 16.06 СЗ 5 4000 м мгла 10/0
[Cs]
+34.6 +30.4 79 +63 +63 опасность
перегрева
997.9 997.4 +37.4
03 17.06 ЮЗ 3 3000 м дымка 6/0
[Cs]
+32.0 +29.4 86 +56 +58 опасность
перегрева
998.6 998.1 +31.8
06 17.06 ЮЗ 3 3000 м мгла 8/0
[Cs]
+34.4 +30.0 78 +61 +72 опасность
перегрева
1000.3 999.8
09 17.06 ЮЗ 4 3000 м мгла 4/0
[Ci fib]
+35.4 +29.6 72 +61 +74 опасность
перегрева
999.9 999.4
12 17.06 штиль 0 2500 м мгла ясно +35.8 +30.0 72 +63 +75 опасность
перегрева
998.0 997.5
15 17.06 СЗ 4 2000 м мгла ясно +34.2 +30.0 79 +61 +61 опасность
перегрева
997.9 997.4 +36.2
03 18.06 штиль 0 1500 м дымка ясно +31.6 +29.2 87 +55 +58 опасность
перегрева
998.0 997.5 +31.4
06 18.06 В 2 3200 м мгла ясно +33.6 +30.0 82 +61 +77 опасность
перегрева
998.9 998.4
09 18.06 Ю 4 3200 м мгла ясно +34.4 +29.4 75 +59 +74 опасность
перегрева
998.1 997.6
12 18.06 ЮЗ 3 3500 м мгла ясно +35.6 +30.1 73 +63 +70 опасность
перегрева
996.9 996.4
15 18.06 ЮЗ 3 3000 м мгла ясно +34.6 +30.2 78 +62 +62 опасность
перегрева
995.7 995.2 +31.6
03 19.06 В 5 3000 м дымка ясно +32.0 +28.3 81 +53 +54 опасность
перегрева
994.7 994.2 +31.8
06 19.06 С 8 3500 м мгла ясно +33.4 +30.2 83 +61 +64 опасность
перегрева
995.3 994.8
12 19.06 С 5 5000 м мгла ясно +34.4 +30.2 79 +62 +67 опасность
перегрева
994.8 994.3
15 19.06 З 5 5000 м мгла ясно +34.0 +27.5 69 +53 +53 опасность
перегрева
995.0 994.5 +35.6

 

Местоположение метеостанции Остров Сирри (Иран): широта 25.91 долгота 54.55 высота над уровнем моря 4 м.

В архиве по умолчанию представлена погода на Острове Сирри за последнюю неделю. Архивные данные за месяц целиком и за предыдущие месяцы, начиная с января 2011 года, Вы можете получить, выбрав интересующий диапазон дат из раскрывающегося списка и нажав кнопку "Ввод!".


*Определитесь, кто Вы:
робот инопланетянин человек

Внимание! Время в таблицах - всемирное. Для получения местного времени необходимо прибавить поправку, которая равна 3.5 ч.

Смотрите также архив погоды в соседних городах и на ближайших метеорологических станциях:

Погода на Острове Абу-Муса (Иран) (29 км)
Погода в Бендер-Ленге (Иран) (80 км)
Погода на Острове Киш (Иран) (87 км)
Погода в Дубае (ОАЭ) (107 км)
Погода в Шардже (ОАЭ) (117 км)
Погода в Аль-Мактум аэропорту (ОАЭ) (128 км)
Погода в Рай-эль-Хайма аэропорту (ОАЭ) (142 км)
Погода в Абу-Даби Батин аэропорту (ОАЭ) (165 км)
Погода в Абу-Даби (ОАЭ) (165 км)
Погода в Эль-Хасаб аэропорту (Оман) (170 км)

Пояснения к столбцам:

Ветер - указаны скорость ветра в м/с - средняя за 10 мин, порывы в срок и между сроками (в фигурных скобках) и направление, откуда дует ветер: С - северный, СВ - северо-восточный, В - восточный, ЮВ - юго-восточный, Ю - южный, ЮЗ - юго-западный, З - западный, СЗ - северо-западный.
Видимость - горизонтальная дальность видимости в метрах или километрах. При видимости от 1 до 10 км при отсутствии осадков обычно наблюдается дымка, при ухудшении видимости до 1 км и менее - туман. В сухую погоду видимость может ухудшаться дымом, пылью или мглою.
Явления - указаны атмосферные явления, наблюдавшиеся в срок или в последний час перед сроком; фигурными скобками обозначены явления, наблюдавшиеся между сроками (за 1-3 часа до срока); квадратными скобками обозначены град или гололедные отложения с указанием их диаметра в мм.
Облачность - указаны через наклонную черту общая и нижняя облачность в баллах и высота нижней границы облаков в метрах; квадратными скобками обозначены формы облаков: Ci - перистые, Cs - перисто-слоистые, Cc - перисто-кучевые, Ac - высококучевые, As - высокослоистые, Sc - слоисто-кучевые, Ns - слоисто-дождевые, Cu - кучевые, Cb - кучево-дождевые. Подробнее классификацию облаков см. в Атласе облаков (PDF).
T - Температура воздуха - температура, измеренная на высоте 2 м над землей.
Td - Температура точки росы - температура, при понижении до которой содержащийся в воздухе водяной пар достигнет насыщения.
f - Относительная влажность воздуха - влажноcть воздуха, измеренная на высоте 2 м над землей.
Te - Эффективная температура - температура, которую ощущает одетый по сезону человек в тени. Характеристика душности погоды. При расчете учитывается влияние влажности воздуха и скорости ветра на теплоощущения человека.
Tes - Эффективная температура на солнце - температура, которую ощущает человек, с поправкой на солнечный нагрев. Характеристика знойности погоды. Зависит от высоты солнца над горизонтом, облачности и скорости ветра. Ночью, в пасмурную погоду, а также при ветре 12 м/с и более поправка равна нулю.
P - Атмосферное давление - приведенное к уровню моря атмосферное давление.
Po - Атмосферное давление - измеренное на уровне метеостанции атмосферное давление.
Tmin - Минимальная температура - минимум температуры воздуха на высоте 2 м над землей.
Tmax - Максимальная температура - максимум температуры воздуха на высоте 2 м над землей.
R - Количество осадков - Количество выпавших осадков за период времени, мм. При наведении курсора мыши на число - период времени, за который выпало указанное количество осадков.
R24 - Количество осадков - Количество выпавших осадков за 24 часа, мм.
S - Снежный покров - Высота снежного покрова, см. При наведении курсора мыши на число - состояние снежного покрова и степень покрытия местности в баллах.